Temp
-7 -6 -4 -3 -2 0 1 1 2 2 4 4 6 6 6 6 6 6 6 6 6 6 6 7 7 7 7 7 7 7 7 7 7 7 7 7 8 8 8 9 9 9 9
-7 -7 -5 -4 -3 -3 -2 0 1 2 2 3 4 5 5 5 5 6 6 5 5 5 6 6 6 6 6 6 6 6 6 6 6 7 6 6 7 7 8 8 8 8 8
-8 -8 -7 -6 -5 -4 -4 -3 -2 -0 1 2 2 3 4 4 4 5 5 4 4 4 5 5 5 5 5 6 6 6 6 6 6 6 6 6 6 7 8 8 8 7 7
-8 -8 -8 -7 -7 -6 -5 -4 -3 -2 -1 -0 1 2 2 3 2 3 3 3 4 4 3 4 5 5 5 5 5 5 5 5 6 6 6 6 6 6 7 7 8 8 8
-9 -9 -9 -9 -8 -7 -5 -5 -4 -3 -2 -1 -1 -1 -0 -0 0 1 2 2 3 3 3 3 4 4 5 5 5 5 5 5 5 5 5 6 6 6 6 6 6 7 8
-9 -10 -9 -9 -8 -7 -6 -6 -5 -4 -4 -3 -2 -2 -2 -2 -1 -0 1 1 2 2 2 3 3 3 3 4 4 5 4 4 5 5 5 5 5 6 6 6 5 6 6
-10 -10 -10 -10 -9 -8 -7 -7 -6 -5 -5 -5 -4 -3 -3 -3 -2 -2 -1 -1 -0 0 1 1 1 2 2 2 3 4 4 4 4 4 4 5 5 5 5 6 6 6 6
-10 -11 -11 -10 -10 -9 -8 -8 -7 -7 -6 -6 -6 -5 -5 -5 -4 -4 -4 -3 -3 -2 -2 -1 -1 -0 0 1 1 2 2 3 3 3 3 3 4 5 5 5 5 6 5
-11 -11 -11 -10 -10 -9 -9 -8 -8 -8 -7 -7 -7 -6 -6 -6 -6 -6 -5 -5 -5 -4 -3 -3 -2 -2 -2 -1 -1 0 1 1 2 2 2 1 2 3 4 4 5 5 4
-11 -11 -11 -10 -10 -10 -9 -9 -8 -8 -8 -7 -7 -7 -7 -7 -7 -7 -6 -6 -6 -5 -5 -4 -4 -3 -3 -3 -2 -2 -1 -1 -0 -0 0 1 1 2 2 3 4 4 4
-12 -12 -12 -11 -11 -11 -10 -10 -9 -8 -8 -8 -8 -8 -7 -7 -7 -7 -7 -7 -6 -6 -6 -5 -5 -5 -4 -4 -4 -4 -3 -2 -2 -1 -1 -0 -0 0 1 2 2 3 3
-12 -12 -12 -12 -11 -11 -11 -11 -10 -10 -10 -9 -9 -9 -9 -8 -8 -8 -8 -7 -7 -7 -7 -7 -6 -6 -6 -6 -6 -6 -5 -5 -4 -3 -3 -2 -1 -1 -0 1 1 2 2
-13 -13 -12 -12 -12 -12 -12 -12 -11 -11 -11 -11 -10 -10 -10 -9 -9 -9 -9 -9 -8 -8 -8 -8 -8 -7 -7 -6 -7 -7 -7 -7 -6 -6 -5 -4 -4 -3 -2 -1 -0 0 1
-13 -13 -12 -12 -12 -12 -12 -12 -12 -12 -11 -11 -11 -11 -11 -10 -10 -10 -10 -10 -10 -9 -9 -9 -9 -9 -8 -8 -8 -8 -8 -8 -7 -7 -7 -6 -6 -5 -4 -3 -2 -2 -1
-14 -13 -13 -13 -13 -12 -12 -12 -12 -12 -12 -12 -12 -12 -12 -12 -12 -11 -11 -11 -11 -11 -11 -10 -10 -10 -9 -9 -9 -10 -11 -10 -8 -7 -7 -7 -7 -6 -6 -6 -5 -4 -3
-13 -13 -13 -13 -13 -13 -13 -13 -13 -13 -13 -13 -13 -13 -13 -13 -13 -13 -13 -13 -12 -12 -12 -11 -11 -11 -11 -10 -11 -14 -13 -13 -12 -8 -8 -8 -8 -7 -7 -6 -6 -6 -6
-14 -13 -13 -13 -13 -14 -14 -13 -13 -14 -14 -14 -14 -14 -14 -14 -14 -14 -14 -14 -14 -14 -14 -13 -13 -13 -12 -12 -15 -15 -15 -14 -12 -11 -10 -9 -8 -8 -8 -7 -7 -7 -6
-14 -14 -14 -14 -14 -14 -14 -14 -15 -15 -15 -15 -16 -15 -15 -15 -15 -15 -15 -15 -16 -15 -16 -16 -16 -16 -14 -14 -15 -16 -16 -15 -13 -13 -12 -11 -10 -10 -9 -9 -9 -8 -7
-15 -15 -16 -16 -15 -16 -16 -16 -16 -16 -16 -17 -17 -17 -17 -17 -17 -16 -16 -16 -16 -17 -17 -17 -18 -18 -17 -17 -18 -17 -16 -16 -16 -15 -14 -13 -12 -12 -12 -11 -10 -10 -9
-16 -17 -17 -17 -17 -17 -17 -17 -17 -17 -17 -18 -17 -18 -18 -18 -18 -18 -17 -18 -18 -18 -18 -18 -18 -18 -18 -18 -19 -18 -17 -17 -16 -16 -15 -15 -14 -14 -13 -12 -11 -11 -10
-17 -17 -18 -17 -17 -18 -18 -18 -17 -18 -18 -19 -19 -18 -18 -18 -18 -19 -18 -19 -19 -19 -19 -19 -19 -19 -19 -20 -20 -18 -18 -17 -17 -16 -16 -16 -15 -14 -14 -13 -13 -12 -11
-17 -17 -17 -17 -17 -18 -18 -18 -17 -18 -19 -19 -19 -19 -19 -19 -19 -19 -19 -20 -20 -20 -20 -20 -19 -20 -20 -20 -20 -19 -18 -17 -17 -17 -17 -17 -16 -15 -14 -13 -13 -12 -11
-17 -17 -17 -17 -16 -17 -18 -18 -18 -19 -19 -19 -19 -19 -19 -19 -20 -20 -20 -21 -21 -21 -21 -21 -21 -20 -20 -20 -20 -20 -19 -18 -18 -18 -17 -16 -16 -16 -15 -15 -14 -13 -13
-17 -17 -17 -17 -17 -17 -17 -18 -19 -19 -19 -19 -19 -19 -20 -20 -21 -21 -21 -21 -21 -21 -21 -21 -21 -20 -20 -20 -20 -19 -18 -18 -18 -18 -17 -17 -17 -16 -16 -16 -16 -15 -14
-17 -17 -17 -17 -17 -17 -18 -17 -18 -19 -19 -20 -20 -20 -20 -20 -21 -21 -21 -22 -22 -22 -22 -21 -20 -20 -20 -20 -19 -18 -18 -18 -17 -17 -17 -17 -17 -17 -17 -17 -16 -16 -15
-16 -17 -17 -18 -18 -18 -18 -17 -18 -19 -19 -20 -20 -20 -21 -21 -21 -21 -21 -21 -22 -22 -21 -21 -20 -20 -20 -19 -19 -18 -18 -18 -17 -18 -19 -19 -19 -18 -18 -18 -17 -17 -16
Height
1569 1566 1562 1559 1555 1552 1549 1546 1545 1543 1543 1544 1546 1547 1548 1549 1550 1550 1551 1550 1548 1551 1552 1553 1553 1554 1555 1555 1555 1556 1557 1557 1558 1559 1560 1560 1560 1561 1561 1562 1563 1565 1566
1570 1567 1564 1560 1556 1553 1550 1548 1546 1545 1544 1544 1545 1546 1547 1548 1548 1548 1549 1549 1548 1549 1549 1549 1549 1551 1552 1553 1554 1554 1555 1555 1556 1557 1558 1556 1556 1556 1556 1557 1558 1559 1561
1571 1568 1565 1561 1558 1554 1551 1549 1548 1546 1545 1545 1545 1545 1546 1546 1547 1547 1547 1547 1548 1548 1548 1548 1549 1549 1549 1549 1551 1552 1552 1553 1554 1555 1556 1556 1553 1552 1551 1551 1552 1554 1554
1573 1570 1567 1563 1560 1557 1555 1553 1551 1548 1547 1546 1545 1544 1544 1544 1545 1546 1546 1546 1546 1546 1546 1546 1546 1547 1547 1547 1548 1548 1549 1550 1550 1552 1552 1552 1552 1552 1550 1548 1549 1549 1548
1574 1572 1569 1567 1564 1560 1557 1555 1553 1551 1549 1548 1547 1546 1545 1545 1545 1545 1545 1544 1544 1544 1544 1545 1544 1544 1543 1543 1544 1544 1545 1546 1546 1547 1548 1549 1548 1548 1548 1545 1545 1545 1545
1576 1574 1572 1570 1566 1563 1560 1558 1555 1553 1552 1550 1549 1547 1547 1546 1546 1544 1543 1542 1541 1541 1541 1541 1541 1541 1540 1539 1539 1540 1540 1541 1541 1542 1543 1543 1544 1543 1543 1543 1541 1540 1540
1577 1575 1573 1570 1567 1564 1561 1559 1557 1555 1553 1551 1550 1549 1548 1547 1545 1544 1542 1541 1539 1538 1538 1537 1536 1536 1536 1535 1535 1535 1535 1535 1535 1537 1537 1537 1538 1538 1538 1538 1536 1535 1534
1577 1575 1573 1571 1568 1566 1563 1561 1558 1556 1555 1553 1551 1550 1549 1547 1546 1544 1542 1540 1538 1537 1536 1535 1533 1532 1531 1530 1529 1529 1529 1529 1529 1530 1529 1530 1531 1532 1532 1532 1532 1530 1529
1576 1575 1573 1572 1570 1567 1564 1562 1560 1558 1556 1554 1553 1551 1549 1547 1546 1544 1543 1540 1538 1536 1534 1532 1530 1529 1527 1525 1524 1523 1523 1523 1523 1523 1522 1522 1522 1524 1525 1525 1525 1525 1522
1576 1575 1574 1572 1570 1568 1566 1564 1561 1559 1557 1555 1553 1551 1549 1547 1545 1543 1541 1539 1537 1535 1532 1530 1528 1525 1523 1522 1520 1519 1517 1516 1517 1516 1515 1516 1515 1515 1516 1517 1518 1518 1517
1576 1576 1574 1573 1570 1568 1566 1563 1561 1559 1557 1555 1553 1551 1549 1546 1544 1542 1539 1537 1535 1532 1529 1527 1524 1522 1520 1518 1516 1514 1513 1511 1510 1509 1508 1509 1509 1507 1508 1508 1509 1508 1509
1576 1575 1574 1572 1569 1567 1564 1562 1559 1557 1555 1553 1551 1549 1547 1544 1542 1539 1537 1534 1531 1529 1526 1524 1521 1519 1517 1515 1512 1510 1508 1506 1505 1503 1502 1500 1500 1500 1501 1501 1500 1499 1501
1575 1574 1572 1570 1567 1565 1562 1560 1558 1555 1553 1551 1548 1546 1544 1542 1539 1536 1534 1531 1528 1526 1523 1520 1518 1515 1513 1511 1509 1506 1503 1501 1500 1499 1497 1495 1493 1492 1492 1492 1491 1491 1490
1573 1572 1570 1567 1565 1562 1559 1557 1555 1553 1550 1547 1545 1542 1540 1537 1535 1532 1530 1527 1524 1521 1518 1516 1513 1511 1508 1506 1504 1502 1499 1497 1495 1494 1492 1490 1489 1487 1485 1484 1483 1483 1482
1571 1569 1566 1564 1562 1559 1557 1555 1552 1549 1546 1544 1541 1538 1536 1533 1530 1528 1525 1523 1520 1517 1514 1511 1509 1506 1503 1501 1498 1496 1494 1490 1488 1487 1486 1484 1483 1482 1480 1478 1476 1475 1474
1567 1565 1563 1561 1558 1555 1553 1550 1548 1545 1542 1539 1537 1534 1531 1528 1524 1521 1519 1516 1514 1511 1508 1506 1503 1500 1497 1495 1493 1492 1488 1484 1481 1478 1478 1476 1475 1474 1472 1471 1470 1469 1467
1563 1561 1559 1556 1554 1552 1549 1546 1543 1540 1538 1535 1532 1529 1526 1522 1519 1516 1512 1509 1506 1503 1500 1498 1496 1493 1490 1488 1487 1485 1482 1477 1474 1472 1469 1467 1467 1466 1464 1462 1461 1460 1459
1560 1558 1555 1552 1550 1547 1545 1541 1538 1536 1532 1530 1527 1524 1521 1518 1514 1511 1507 1504 1500 1497 1493 1490 1487 1485 1483 1481 1479 1477 1473 1469 1467 1465 1462 1460 1458 1458 1456 1454 1452 1451 1450
1555 1552 1550 1547 1545 1542 1539 1536 1533 1530 1527 1525 1522 1520 1517 1513 1510 1507 1503 1500 1496 1492 1489 1486 1482 1479 1475 1473 1471 1470 1466 1462 1460 1457 1455 1453 1451 1450 1450 1449 1446 1443 1440
1550 1547 1545 1543 1540 1538 1535 1531 1529 1526 1523 1521 1518 1516 1513 1509 1506 1502 1498 1495 1492 1488 1485 1481 1478 1474 1470 1467 1467 1465 1462 1457 1455 1452 1449 1448 1447 1446 1445 1444 1440 1436 1434
1545 1542 1540 1538 1535 1533 1530 1527 1524 1522 1519 1516 1514 1511 1508 1505 1501 1497 1494 1490 1486 1483 1479 1476 1473 1470 1466 1463 1461 1460 1457 1454 1450 1447 1444 1442 1441 1440 1438 1436 1433 1429 1429
1539 1537 1534 1532 1530 1528 1525 1522 1519 1517 1513 1510 1508 1505 1502 1499 1495 1492 1488 1485 1481 1478 1474 1470 1466 1464 1462 1459 1456 1454 1452 1449 1445 1441 1437 1435 1434 1433 1430 1428 1424 1423 1422
1534 1532 1529 1526 1525 1522 1520 1516 1513 1510 1507 1504 1501 1498 1495 1492 1489 1485 1481 1478 1476 1472 1468 1464 1461 1457 1455 1452 1450 1448 1445 1443 1440 1436 1432 1429 1426 1424 1421 1418 1417 1415 1412
1528 1526 1523 1520 1518 1516 1513 1510 1507 1504 1500 1496 1493 1490 1487 1484 1481 1479 1476 1472 1469 1465 1462 1459 1455 1451 1448 1446 1444 1440 1437 1434 1431 1427 1423 1420 1419 1416 1413 1410 1408 1405 1403
1523 1521 1517 1514 1510 1508 1506 1503 1500 1496 1492 1488 1485 1481 1478 1476 1473 1470 1468 1465 1462 1460 1457 1454 1452 1448 1444 1441 1439 1436 1432 1429 1425 1421 1416 1412 1410 1407 1405 1403 1401 1398 1396
1517 1514 1511 1507 1503 1500 1496 1494 1491 1488 1483 1479 1476 1473 1471 1467 1465 1462 1458 1458 1455 1454 1453 1450 1447 1443 1439 1436 1432 1429 1426 1422 1419 1410 1408 1407 1405 1402 1399 1397 1394 1391 1389
Wind_Speed
18 22 22 22 22 20 20 19 15 14 3 6 8 9 8 6 6 5 7 6 3 4 5 5 6 8 7 7 8 11 14 14 13 13 14 17 19 19 21 21 21 20 21
20 20 22 22 24 24 25 22 21 17 13 7 5 5 5 5 5 5 6 6 7 8 8 8 8 8 7 9 9 11 13 15 13 14 12 10 17 23 23 25 24 25 25
21 21 23 24 23 25 25 24 23 22 19 13 6 4 4 3 6 5 5 4 3 7 10 9 10 11 11 9 9 11 14 17 16 16 13 6 8 8 11 15 25 28 27
19 20 22 24 25 24 22 22 21 21 20 18 13 9 7 4 5 3 2 2 2 7 9 10 11 12 14 14 13 12 14 16 18 20 21 20 20 11 8 7 9 13 18
17 19 20 21 22 22 23 22 20 19 19 19 18 15 12 9 6 3 2 2 2 6 10 11 12 13 14 16 17 17 16 16 18 19 21 23 24 26 26 28 25 18 14
16 17 17 18 21 21 22 22 22 21 20 18 16 16 14 12 9 7 5 7 7 8 10 14 14 13 14 16 17 19 19 19 20 20 21 23 25 26 27 29 31 32 31
15 16 19 20 21 22 22 22 22 22 21 20 18 17 15 14 13 13 12 11 10 8 9 12 14 15 16 17 18 19 20 22 24 23 23 24 26 27 29 30 32 32 30
13 15 17 18 20 21 21 21 22 21 20 19 19 18 17 16 16 15 15 15 15 14 14 13 14 15 16 17 19 20 22 23 24 26 24 28 29 29 29 31 31 32 29
11 13 14 16 18 19 20 20 19 19 19 19 18 18 17 17 17 16 16 16 16 16 16 16 16 16 17 18 18 19 23 24 24 25 28 28 26 30 33 33 31 33 31
8 11 13 15 16 16 16 16 16 17 18 17 17 18 18 17 16 17 17 17 17 17 17 17 17 17 18 18 19 19 19 21 26 27 27 28 30 30 28 34 36 34 37
6 9 12 13 14 14 15 15 15 15 15 15 15 16 16 16 17 17 18 18 18 18 18 19 19 19 19 19 19 19 20 21 21 22 29 30 27 28 31 28 31 37 38
4 7 13 14 15 16 16 17 17 17 17 17 17 17 17 17 17 18 18 19 19 19 20 19 19 19 19 19 19 20 20 22 22 22 23 23 31 31 29 32 29 29 37
3 8 15 17 17 17 17 17 17 18 19 18 18 18 18 18 18 19 19 20 21 20 20 20 21 20 20 19 19 20 21 22 22 22 23 24 23 26 31 32 35 36 29
4 12 18 18 18 19 20 19 18 18 19 19 20 20 20 20 20 20 20 21 21 22 22 22 22 22 22 21 20 21 21 23 24 23 23 23 24 24 25 28 33 33 37
4 18 21 20 19 19 19 19 19 20 20 21 22 22 22 22 22 22 22 21 21 22 22 23 23 23 23 23 22 21 22 26 27 26 24 24 24 24 24 23 26 30 33
8 22 22 20 19 20 20 20 21 21 21 22 22 23 24 25 25 26 26 26 25 24 24 23 24 24 24 23 20 21 24 26 29 29 27 26 25 25 26 27 26 25 26
13 26 22 20 20 20 20 21 21 22 23 23 23 23 25 26 27 28 29 29 29 29 28 26 25 25 25 24 22 23 25 29 30 30 29 29 27 26 27 27 28 29 28
21 23 20 20 19 18 20 21 22 22 23 23 23 22 23 25 26 26 27 28 28 29 30 29 28 27 27 26 25 25 27 29 29 28 27 28 29 26 26 26 26 27 29
22 21 20 20 20 20 21 22 21 20 21 22 22 23 25 27 27 27 27 27 28 29 28 27 28 30 30 26 25 25 26 28 29 30 29 27 26 24 22 23 27 27 28
19 19 18 19 21 20 20 21 20 20 21 22 23 25 26 26 27 27 27 27 27 28 27 29 28 27 29 25 21 22 24 26 28 27 28 25 23 22 22 23 26 30 29
18 17 18 20 20 20 20 21 20 21 23 24 26 26 26 27 27 28 27 28 27 27 29 29 29 25 22 24 21 21 23 24 26 29 30 29 26 26 26 26 29 31 27
17 18 20 20 19 19 20 21 23 24 26 27 28 27 27 27 27 28 28 26 27 29 30 29 28 24 24 26 23 23 23 24 28 30 30 29 27 28 29 28 29 28 28
19 20 21 22 20 20 21 24 25 27 28 29 30 29 29 28 27 27 28 29 28 29 29 27 27 29 31 31 26 24 23 21 24 27 28 29 30 29 28 27 27 28 30
22 22 23 24 24 23 23 26 28 27 29 31 31 30 30 29 27 28 26 28 29 28 27 26 31 34 33 31 31 28 31 30 30 31 31 29 29 30 30 31 33 33 29
24 24 24 26 28 28 28 27 28 29 30 31 31 30 30 30 30 29 28 27 27 25 27 31 32 33 33 32 28 30 30 31 31 32 33 33 33 32 32 31 28 27 30
25 26 29 31 32 32 32 31 30 29 30 31 31 31 29 30 31 31 33 27 25 23 24 25 26 29 29 29 29 29 29 29 28 21 19 21 21 18 16 17 16 14 17
Wind_Direction
46 46 49 53 57 55 54 51 50 54 116 161 174 179 176 154 179 200 201 205 180 262 287 246 247 263 253 257 236 242 241 253 250 256 262 254 242 243 243 247 246 249 251
47 40 42 47 51 53 55 53 53 54 59 81 139 155 139 120 151 182 218 229 219 238 237 225 224 243 247 239 265 250 250 251 252 255 269 281 253 248 253 243 245 247 245
48 39 37 40 44 47 47 49 51 55 57 60 85 164 175 167 166 197 208 216 234 243 244 237 234 236 241 234 235 262 258 257 258 257 247 266 252 286 263 249 245 248 251
49 42 37 38 40 42 44 47 46 49 55 57 63 71 74 73 60 74 104 127 211 254 263 252 245 242 240 242 234 249 255 261 261 257 255 252 259 278 296 267 253 252 260
49 45 40 38 40 41 43 43 43 46 49 47 51 53 57 54 37 8 331 263 235 260 263 270 260 251 245 243 241 236 243 255 261 261 260 258 260 262 264 278 275 271 275
49 46 42 39 39 40 42 42 41 42 42 42 41 39 38 35 26 14 319 292 295 278 266 269 270 266 258 252 247 243 240 245 254 260 260 258 257 263 265 267 272 276 282
50 40 36 35 33 34 35 36 37 37 35 34 35 33 28 19 13 8 1 350 339 319 295 280 272 270 268 264 259 254 250 244 245 251 260 259 259 259 263 266 271 275 279
50 38 32 31 30 29 29 29 29 30 29 29 28 26 22 20 14 5 359 352 347 341 331 321 311 300 287 277 269 264 260 255 251 246 251 256 256 258 261 265 266 270 270
43 34 29 28 26 25 24 22 23 23 21 19 18 18 14 10 8 4 357 352 345 339 335 328 320 313 308 302 295 281 269 264 260 254 253 254 256 256 251 257 261 259 260
42 33 25 22 20 19 17 15 14 12 11 8 6 5 2 360 356 352 348 346 342 338 332 329 325 320 315 309 304 298 292 283 270 267 262 256 255 252 256 254 251 256 258
36 29 19 13 10 8 8 8 5 3 1 360 357 353 350 348 345 342 341 339 337 333 332 330 327 324 320 316 309 305 300 295 291 283 270 266 266 262 255 256 259 260 256
21 18 8 4 2 1 1 1 358 357 355 353 349 346 343 340 336 334 333 332 331 330 328 325 322 320 318 317 314 308 304 301 299 294 290 285 265 262 259 257 256 257 257
349 2 358 358 357 355 353 354 351 349 346 344 342 340 337 335 333 330 329 328 325 324 322 320 318 315 313 310 309 307 305 302 300 299 297 294 291 282 266 259 256 256 256
333 351 351 351 349 346 344 344 344 342 340 338 337 335 334 333 332 329 327 325 322 320 317 317 315 313 310 307 304 300 300 298 296 295 293 292 292 290 288 278 266 263 261
321 352 347 342 340 336 335 334 335 336 335 334 333 331 331 329 327 325 324 321 319 318 315 312 310 309 306 305 306 306 305 299 291 290 289 287 284 283 284 286 282 274 267
313 341 337 333 333 332 331 330 331 331 331 329 328 327 325 325 326 324 323 321 318 314 311 309 308 307 305 303 304 311 302 299 294 291 289 287 284 281 274 274 273 272 276
308 327 327 327 327 327 325 323 324 325 323 321 321 320 320 320 321 322 321 320 319 318 316 312 308 304 301 305 312 313 303 293 292 295 293 289 284 282 283 277 273 272 268
307 317 319 319 322 322 319 319 320 318 318 322 323 323 325 325 325 324 323 323 323 323 323 321 319 313 309 305 307 310 300 299 299 297 294 292 289 287 285 288 287 281 275
312 316 319 320 321 324 323 320 321 323 324 327 326 327 328 326 324 324 323 323 322 322 322 322 319 317 317 317 314 315 309 303 303 303 303 302 297 291 295 295 293 289 283
311 316 318 318 321 323 320 319 322 321 323 323 321 322 322 321 320 321 321 321 321 319 319 318 318 319 318 321 318 312 312 308 309 309 313 308 300 298 294 287 285 290 291
314 317 316 315 319 319 319 316 316 318 319 316 315 314 316 316 317 317 318 316 317 317 316 315 316 323 330 328 323 317 313 307 304 302 302 301 296 296 294 288 281 278 287
317 319 315 315 317 318 315 311 312 320 314 311 309 310 312 312 314 314 313 312 314 313 313 314 317 325 328 330 321 316 310 304 298 298 300 297 296 296 294 290 287 280 274
317 315 312 312 316 314 312 308 317 314 309 308 308 306 306 308 310 310 311 310 309 310 311 312 318 325 328 325 322 314 312 312 306 302 299 294 293 291 290 293 293 287 277
314 315 312 310 311 313 312 313 309 308 308 306 305 304 303 307 306 303 302 305 308 307 307 315 318 320 318 314 315 318 319 319 310 309 306 301 295 289 292 289 291 291 289
311 310 308 309 310 313 309 307 308 309 305 303 303 302 302 302 303 305 305 303 302 301 305 305 302 301 303 305 307 305 305 305 304 303 299 299 300 297 297 296 295 297 291
309 309 310 308 306 304 306 309 309 307 304 301 301 301 299 297 299 302 305 303 296 289 288 290 291 294 294 298 299 300 301 302 304 303 310 312 310 310 309 310 312 311 293